| time (UTC) | temp F | wind direction | speed knots | gust knots | rain 1hr in | rain 24hr in | rain mn in | humidity % | barometer mb |
| 20260509004554 | 49 | 63 | 3.5 | 7.0 | 0.00 | 0.07 | 0.00 | 90 | 1017.8 |
| 20260509003048 | 49 | 46 | 4.3 | 7.8 | 0.00 | 0.07 | 0.00 | 90 | 1017.9 |
| 20260509001554 | 49 | 45 | 1.7 | 7.8 | 0.00 | 0.07 | 0.00 | 89 | 1017.9 |
| 20260509000049 | 49 | 21 | 3.5 | 6.1 | 0.00 | 0.07 | 0.00 | 89 | 1018.1 |
| 20260508234552 | 49 | 48 | 2.6 | 7.0 | 0.00 | 0.08 | 0.00 | 89 | 1018.1 |
| 20260508233052 | 50 | 51 | 2.6 | 6.1 | 0.00 | 0.08 | 0.00 | 89 | 1018.1 |
| 20260508231552 | 50 | 55 | 3.5 | 6.1 | 0.00 | 0.08 | 0.00 | 89 | 1018.2 |
| 20260508230051 | 50 | 44 | 1.7 | 5.2 | 0.00 | 0.08 | 0.00 | 89 | 1018.3 |
| 20260508224549 | 50 | 59 | 2.6 | 5.2 | 0.00 | 0.12 | 0.00 | 89 | 1018.4 |
| 20260508223051 | 50 | 57 | 2.6 | 7.0 | 0.00 | 0.12 | 0.00 | 89 | 1018.4 |
| 20260508221555 | 50 | 57 | 3.5 | 5.2 | 0.00 | 0.12 | 0.00 | 88 | 1018.4 |
| 20260508220058 | 50 | 48 | 2.6 | 7.8 | 0.00 | 0.12 | 0.00 | 88 | 1018.3 |
| 20260508214603 | 50 | 42 | 1.7 | 4.3 | 0.00 | 0.12 | 0.12 | 88 | 1018.4 |
| 20260508213049 | 50 | 37 | 1.7 | 8.7 | 0.00 | 0.12 | 0.12 | 88 | 1018.5 |
| 20260508211556 | 51 | 53 | 4.3 | 9.6 | 0.00 | 0.12 | 0.12 | 88 | 1018.3 |
| 20260508210055 | 51 | 71 | 3.5 | 7.8 | 0.00 | 0.12 | 0.12 | 87 | 1018.4 |
| 20260508204551 | 51 | 80 | 1.7 | 3.5 | 0.00 | 0.14 | 0.12 | 87 | 1018.4 |
| 20260508203050 | 51 | 50 | 3.5 | 5.2 | 0.00 | 0.14 | 0.12 | 87 | 1018.2 |
| 20260508201547 | 51 | 24 | 2.6 | 7.0 | 0.00 | 0.14 | 0.12 | 87 | 1018.1 |
| 20260508200044 | 51 | 0 | 0.0 | 2.6 | 0.00 | 0.14 | 0.12 | 87 | 1018.2 |
| 20260508194548 | 51 | 48 | 3.5 | 6.1 | 0.00 | 0.15 | 0.12 | 87 | 1018.0 |
| 20260508193105 | 51 | 28 | 5.2 | 12.2 | 0.00 | 0.15 | 0.12 | 87 | 1017.8 |
| 20260508191551 | 51 | 38 | 6.1 | 12.2 | 0.00 | 0.15 | 0.12 | 87 | 1017.6 |
| 20260508190058 | 51 | 31 | 5.2 | 10.4 | 0.03 | 0.15 | 0.12 | 87 | 1017.5 |
| 20260508184542 | 52 | 54 | 6.1 | 11.3 | 0.05 | 0.18 | 0.12 | 87 | 1017.4 |
| 20260508183109 | 52 | 51 | 4.3 | 9.6 | 0.04 | 0.17 | 0.11 | 86 | 1017.2 |
| 20260508181552 | 53 | 30 | 6.1 | 12.2 | 0.04 | 0.17 | 0.11 | 84 | 1017.1 |
| 20260508180100 | 54 | 46 | 2.6 | 8.7 | 0.01 | 0.14 | 0.08 | 82 | 1017.1 |
| 20260508174601 | 54 | 5 | 4.3 | 9.6 | 0.00 | 0.20 | 0.07 | 80 | 1017.1 |
| 20260508173047 | 55 | 59 | 5.2 | 10.4 | 0.00 | 0.20 | 0.07 | 80 | 1016.8 |
| 20260508171543 | 55 | 32 | 7.0 | 11.3 | 0.00 | 0.20 | 0.07 | 80 | 1016.7 |
| 20260508170107 | 55 | 35 | 7.0 | 12.2 | 0.00 | 0.20 | 0.07 | 80 | 1016.6 |
| 20260508164552 | 55 | 49 | 5.2 | 12.2 | 0.00 | 0.29 | 0.07 | 80 | 1016.7 |
| 20260508163051 | 56 | 28 | 7.8 | 12.2 | 0.00 | 0.29 | 0.07 | 79 | 1016.6 |
| 20260508161549 | 56 | 5 | 6.1 | 9.6 | 0.00 | 0.28 | 0.06 | 77 | 1016.6 |
| 20260508160052 | 57 | 34 | 6.1 | 12.2 | 0.00 | 0.28 | 0.06 | 79 | 1016.5 |
| 20260508154548 | 57 | 19 | 5.2 | 11.3 | 0.00 | 0.36 | 0.06 | 78 | 1016.5 |
| 20260508153056 | 58 | 38 | 5.2 | 11.3 | 0.00 | 0.36 | 0.06 | 78 | 1016.6 |
| 20260508151550 | 58 | 33 | 7.8 | 12.2 | 0.00 | 0.36 | 0.06 | 76 | 1016.4 |
| 20260508150049 | 59 | 53 | 6.1 | 9.6 | 0.00 | 0.36 | 0.06 | 75 | 1016.4 |
| 20260508144553 | 59 | 45 | 8.7 | 13.9 | 0.00 | 0.37 | 0.06 | 75 | 1016.3 |
| 20260508143055 | 59 | 39 | 6.1 | 10.4 | 0.00 | 0.37 | 0.06 | 76 | 1016.2 |
| 20260508141550 | 59 | 48 | 6.1 | 9.6 | 0.00 | 0.37 | 0.06 | 77 | 1016.3 |
| 20260508140041 | 59 | 34 | 5.2 | 10.4 | 0.00 | 0.37 | 0.06 | 77 | 1016.2 |
| 20260508134545 | 58 | 44 | 7.0 | 10.4 | 0.00 | 0.38 | 0.06 | 79 | 1016.2 |
| 20260508133045 | 58 | 42 | 4.3 | 10.4 | 0.00 | 0.38 | 0.06 | 80 | 1016.2 |
| 20260508131556 | 58 | 38 | 7.8 | 11.3 | 0.00 | 0.38 | 0.06 | 78 | 1016.3 |
| 20260508130053 | 60 | 17 | 8.7 | 12.2 | 0.00 | 0.38 | 0.06 | 78 | 1016.2 |
| 20260508124548 | 58 | 42 | 7.8 | 12.2 | 0.00 | 0.38 | 0.06 | 77 | 1016.4 |
| 20260508123052 | 59 | 28 | 6.1 | 10.4 | 0.00 | 0.38 | 0.06 | 73 | 1016.3 |
| 20260508121558 | 60 | 113 | 4.3 | 8.7 | 0.00 | 0.38 | 0.06 | 67 | 1016.3 |
| 20260508120109 | 62 | 46 | 1.7 | 10.4 | 0.00 | 0.38 | 0.06 | 65 | 1016.2 |
| 20260508114559 | 63 | 26 | 2.6 | 8.7 | 0.00 | 0.38 | 0.06 | 66 | 1015.9 |
| 20260508113106 | 61 | 63 | 5.2 | 9.6 | 0.00 | 0.38 | 0.06 | 67 | 1016.0 |
| 20260508111551 | 61 | 40 | 5.2 | 10.4 | 0.00 | 0.38 | 0.06 | 68 | 1016.1 |
| 20260508110100 | 60 | 46 | 7.0 | 11.3 | 0.00 | 0.38 | 0.06 | 67 | 1016.0 |
| 20260508104548 | 60 | 56 | 5.2 | 12.2 | 0.00 | 0.38 | 0.06 | 70 | 1016.1 |
| 20260508103058 | 62 | 71 | 5.2 | 12.2 | 0.00 | 0.38 | 0.06 | 71 | 1016.0 |
| 20260508101554 | 61 | 34 | 6.1 | 12.2 | 0.00 | 0.38 | 0.06 | 71 | 1015.9 |
| 20260508100047 | 60 | 77 | 4.3 | 10.4 | 0.00 | 0.38 | 0.06 | 74 | 1016.1 |
| 20260508094547 | 59 | 53 | 4.3 | 9.6 | 0.00 | 0.38 | 0.06 | 77 | 1016.1 |
| 20260508093047 | 57 | 5 | 4.3 | 9.6 | 0.00 | 0.38 | 0.06 | 82 | 1016.2 |
| 20260508091546 | 55 | 360 | 7.0 | 10.4 | 0.00 | 0.38 | 0.06 | 85 | 1016.2 |
| 20260508090043 | 56 | 28 | 7.0 | 11.3 | 0.00 | 0.37 | 0.05 | 81 | 1016.2 |
| 20260508084547 | 58 | 82 | 1.7 | 7.8 | 0.00 | 0.37 | 0.05 | 78 | 1016.2 |
| 20260508083049 | 58 | 129 | 5.2 | 7.8 | 0.00 | 0.37 | 0.05 | 80 | 1016.2 |
| 20260508081547 | 57 | 109 | 2.6 | 6.1 | 0.00 | 0.37 | 0.05 | 82 | 1016.2 |
| 20260508080048 | 55 | 192 | 1.7 | 4.3 | 0.00 | 0.37 | 0.05 | 87 | 1016.2 |
| 20260508074547 | 54 | 74 | 0.9 | 4.3 | 0.00 | 0.37 | 0.05 | 88 | 1016.1 |
| 20260508073043 | 54 | 109 | 0.0 | 3.5 | 0.00 | 0.37 | 0.05 | 89 | 1016.0 |
| 20260508071543 | 53 | 82 | 2.6 | 6.1 | 0.00 | 0.37 | 0.05 | 90 | 1015.9 |
| 20260508070053 | 53 | 93 | 2.6 | 6.1 | 0.00 | 0.37 | 0.05 | 91 | 1016.0 |
| 20260508064633 | 53 | 88 | 1.7 | 4.3 | 0.00 | 0.37 | 0.05 | 92 | 1015.8 |
| 20260508063057 | 52 | 167 | 0.9 | 2.6 | 0.00 | 0.37 | 0.05 | 92 | 1015.8 |
| 20260508061546 | 52 | 0 | 0.0 | 1.7 | 0.00 | 0.37 | 0.05 | 92 | 1015.7 |
| 20260508060048 | 51 | 0 | 0.0 | 2.6 | 0.00 | 0.37 | 0.05 | 92 | 1015.7 |
| 20260508054548 | 51 | 176 | 0.9 | 2.6 | 0.00 | 0.37 | 0.05 | 92 | 1015.5 |
| 20260508053055 | 50 | 0 | 0.9 | 2.6 | 0.00 | 0.37 | 0.05 | 92 | 1015.3 |
| 20260508051550 | 50 | 0 | 0.0 | 2.6 | 0.00 | 0.37 | 0.05 | 92 | 1015.3 |
| 20260508050049 | 50 | 175 | 0.0 | 3.5 | 0.00 | 0.37 | 0.05 | 92 | 1015.4 |
| 20260508044547 | 49 | 167 | 0.9 | 5.2 | 0.00 | 0.37 | 0.05 | 92 | 1015.2 |
| 20260508043058 | 49 | 286 | 0.9 | 2.6 | 0.00 | 0.37 | 0.05 | 92 | 1015.1 |
| 20260508041553 | 49 | 290 | 0.9 | 2.6 | 0.00 | 0.37 | 0.05 | 92 | 1015.2 |
| 20260508040051 | 48 | 290 | 0.9 | 4.3 | 0.00 | 0.37 | 0.05 | 92 | 1015.0 |
| 20260508034542 | 48 | 312 | 1.7 | 7.0 | 0.00 | 0.37 | 0.05 | 92 | 1015.0 |
| 20260508033040 | 49 | 255 | 2.6 | 6.1 | 0.00 | 0.37 | 0.05 | 92 | 1014.7 |
| 20260508031549 | 49 | 257 | 2.6 | 5.2 | 0.00 | 0.37 | 0.05 | 91 | 1014.6 |
| 20260508030047 | 50 | 215 | 2.6 | 5.2 | 0.00 | 0.37 | 0.05 | 92 | 1014.5 |
| 20260508024544 | 50 | 0 | 0.0 | 1.7 | 0.00 | 0.37 | 0.05 | 92 | 1014.3 |
| 20260508023043 | 50 | 0 | 0.0 | 1.7 | 0.00 | 0.37 | 0.05 | 92 | 1014.2 |
| 20260508021555 | 50 | 0 | 0.0 | 0.9 | 0.00 | 0.37 | 0.05 | 92 | 1014.2 |
| 20260508020049 | 50 | 0 | 0.0 | 0.9 | 0.00 | 0.37 | 0.05 | 92 | 1014.4 |
| 20260508014548 | 50 | 0 | 0.0 | 1.7 | 0.00 | 0.37 | 0.05 | 91 | 1014.3 |
| 20260508013053 | 50 | 0 | 0.0 | 0.9 | 0.00 | 0.37 | 0.05 | 91 | 1014.6 |
| 20260508011544 | 51 | 0 | 0.0 | 0.0 | 0.00 | 0.37 | 0.04 | 91 | 1014.6 |
| 20260508010050 | 50 | 0 | 0.0 | 0.0 | 0.00 | 0.37 | 0.04 | 91 | 1014.5 |